FW1458 Weather Reports


time (UTC)temp
C
wind
direction
speed
KPH
gust
KPH
rain 1hr
cm
rain 24hr
cm
rain mn
cm
humidity
%
barometer
mb
20260906191554 41 320 4.8 12.9 0.00 0.00 0.00 34 1010.7
20260906190048 41 262 3.2 12.9 0.00 0.00 0.00 35 1010.9
20260906184555 40 350 4.8 11.3 0.00 0.00 0.00 37 1011.0
20260906183056 39 5 3.2 12.9 0.00 0.00 0.00 37 1011.2
20260906181545 40 155 4.8 16.1 0.00 0.00 0.00 37 1011.7
20260906180044 39 80 3.2 8.0 0.00 0.00 0.00 38 1012.1
20260906174541 38 350 4.8 12.9 0.00 0.00 0.00 39 1012.4
20260906173036 38 175 1.6 6.4 0.00 0.00 0.00 42 1012.5
20260906171537 38 40 3.2 8.0 0.00 0.00 0.00 41 1012.7
20260906170035 38 200 3.2 9.7 0.00 0.00 0.00 44 1013.0
20260906164539 37 19 3.2 8.0 0.00 0.00 0.00 46 1013.1
20260906163034 36 5 1.6 9.7 0.00 0.00 0.00 47 1013.2
20260906161522 36 31 4.8 9.7 0.00 0.00 0.00 47 1013.2
20260906160019 36 17 3.2 8.0 0.00 0.00 0.00 48 1013.3
20260906154519 35 225 3.2 8.0 0.00 0.00 0.00 51 1013.3
20260906153014 33 10 3.2 6.4 0.00 0.00 0.00 53 1013.2
20260906151513 33 13 1.6 8.0 0.00 0.00 0.00 56 1013.2
20260906150014 32 294 1.6 9.7 0.00 0.00 0.00 57 1013.1
20260906144620 32 5 1.6 4.8 0.00 0.00 0.00 60 1013.1
20260906143102 31 304 1.6 4.8 0.00 0.00 0.00 61 1013.2
20260906141604 30 258 1.6 4.8 0.00 0.00 0.00 63 1013.1
20260906140052 29 162 1.6 4.8 0.00 0.00 0.00 66 1013.0
20260906134545 28 205 0.0 4.8 0.00 0.00 0.00 70 1012.9
20260906133044 27 219 1.6 4.8 0.00 0.00 0.00 74 1012.8
20260906131542 26 160 1.6 4.8 0.00 0.00 0.00 77 1012.8
20260906130047 25 172 0.0 3.2 0.00 0.00 0.00 79 1012.8
20260906124540 25 149 0.0 3.2 0.00 0.00 0.00 80 1012.7
20260906123038 25 174 1.6 4.8 0.00 0.00 0.00 81 1012.3
20260906121538 24 163 0.0 1.6 0.00 0.00 0.00 81 1012.3
20260906120046 24 163 0.0 1.6 0.00 0.00 0.00 81 1012.3
20260906114539 24 158 1.6 4.8 0.00 0.00 0.00 82 1012.1
20260906113034 25 70 0.0 3.2 0.00 0.00 0.00 82 1012.0
20260906111533 25 17 0.0 0.0 0.00 0.00 0.00 81 1011.8
20260906110040 25 17 0.0 0.0 0.00 0.00 0.00 80 1011.6
20260906104529 25 17 0.0 3.2 0.00 0.00 0.00 80 1011.5
20260906103029 25 17 0.0 1.6 0.00 0.00 0.00 79 1011.7
20260906101529 25 17 0.0 3.2 0.00 0.00 0.00 79 1011.7
20260906100026 25 159 0.0 0.0 0.00 0.00 0.00 80 1011.7
20260906094549 25 159 0.0 1.6 0.00 0.00 0.00 80 1011.7
20260906093024 25 159 0.0 0.0 0.00 0.00 0.00 78 1011.5
20260906091524 25 159 0.0 1.6 0.00 0.00 0.00 77 1011.4
20260906090022 25 159 0.0 3.2 0.00 0.00 0.00 77 1011.3
20260906084520 25 159 0.0 0.0 0.00 0.00 0.00 77 1011.1
20260906083021 25 159 0.0 1.6 0.00 0.00 0.00 78 1011.2
20260906081536 26 159 0.0 0.0 0.00 0.00 0.00 76 1011.0
20260906080017 26 159 0.0 0.0 0.00 0.00 0.00 75 1010.8
20260906074515 26 159 0.0 0.0 0.00 0.00 0.00 75 1010.9
20260906073013 26 159 0.0 0.0 0.00 0.00 0.00 74 1010.8
20260906071511 26 159 0.0 0.0 0.00 0.00 0.00 71 1010.8
20260906070011 27 159 0.0 1.6 0.00 0.00 0.00 71 1010.9
20260906064506 27 159 0.0 0.0 0.00 0.00 0.00 70 1011.1
20260906063007 27 159 0.0 3.2 0.00 0.00 0.00 70 1011.1
20260906061507 27 159 0.0 4.8 0.00 0.00 0.00 70 1011.0
20260906060004 27 189 1.6 4.8 0.00 0.00 0.00 69 1011.2
20260906054502 27 315 0.0 1.6 0.00 0.00 0.00 70 1011.1
20260906053109 27 225 0.0 0.0 0.00 0.00 0.00 70 1011.0
20260906051557 27 225 0.0 1.6 0.00 0.00 0.00 68 1010.9
20260906050112 28 225 0.0 0.0 0.00 0.00 0.00 66 1010.8
20260906044555 28 225 0.0 0.0 0.00 0.00 0.00 65 1010.8
20260906043053 28 225 0.0 3.2 0.00 0.00 0.00 65 1010.9
20260906041552 28 225 0.0 4.8 0.00 0.00 0.00 65 1011.0
20260906040110 29 140 0.0 0.0 0.00 0.00 0.00 62 1010.9
20260906034602 29 140 0.0 0.0 0.00 0.00 0.00 61 1011.0
20260906033051 30 139 0.0 1.6 0.00 0.00 0.00 60 1010.8
20260906031600 30 140 0.0 0.0 0.00 0.00 0.00 57 1010.6
20260906030055 30 139 0.0 0.0 0.00 0.00 0.00 57 1010.5
20260906024549 31 139 0.0 0.0 0.00 0.00 0.00 56 1010.7
20260906023052 31 140 0.0 1.6 0.00 0.00 0.00 56 1010.4
20260906021600 31 140 0.0 1.6 0.00 0.00 0.00 53 1010.2
20260906020055 32 139 0.0 1.6 0.00 0.00 0.00 53 1010.1
20260906014556 32 139 0.0 0.0 0.00 0.00 0.00 50 1010.0
20260906013049 33 140 0.0 3.2 0.00 0.00 0.00 48 1009.9
20260906011548 34 140 0.0 0.0 0.00 0.00 0.00 46 1009.8
20260906010046 35 140 0.0 0.0 0.00 0.00 0.00 44 1009.7
20260906004547 36 140 0.0 1.6 0.00 0.00 0.00 42 1009.7
20260906003047 37 140 0.0 3.2 0.00 0.00 0.00 39 1009.7
20260906001547 37 157 0.0 4.8 0.00 0.00 0.00 37 1009.6
20260906000044 38 146 0.0 6.4 0.00 0.00 0.00 37 1009.5
20260905234544 38 98 3.2 6.4 0.00 0.00 0.00 35 1009.5
20260905233044 39 157 3.2 8.0 0.00 0.00 0.00 35 1009.3
20260905231543 39 102 3.2 11.3 0.00 0.00 0.00 36 1009.3
20260905230046 39 155 6.4 12.9 0.00 0.00 0.00 36 1009.1
20260905224551 39 234 1.6 11.3 0.00 0.00 0.00 36 1009.2
20260905223044 39 81 3.2 11.3 0.00 0.00 0.00 36 1009.2
20260905221546 39 93 4.8 11.3 0.00 0.00 0.00 37 1009.4
20260905220037 39 74 3.2 11.3 0.00 0.00 0.00 38 1009.5
20260905214536 39 128 3.2 9.7 0.00 0.00 0.00 37 1009.8
20260905213036 40 163 4.8 11.3 0.00 0.00 0.00 36 1009.9
20260905211542 39 85 3.2 14.5 0.00 0.00 0.00 38 1010.2
20260905210033 38 67 3.2 11.3 0.00 0.00 0.00 39 1010.3
20260905204529 39 24 6.4 12.9 0.00 0.00 0.00 39 1010.5
20260905203031 39 157 4.8 12.9 0.00 0.00 0.00 38 1010.8
20260905201524 39 176 4.8 11.3 0.00 0.00 0.00 39 1010.9
20260905200025 39 173 1.6 8.0 0.00 0.00 0.00 39 1011.2
20260905194519 38 188 3.2 12.9 0.00 0.00 0.00 39 1011.4
20260905193018 38 12 3.2 9.7 0.00 0.00 0.00 39 1011.6